This demonstration page uses our WeatherBlox Daily Observations layout. Learn more.

Left ArrowRight Arrow

34.74481, -87.66753

Hourly Observations for January 12, 2022

Temp ( °F °C ) Dew Point ( °F °C ) Humidity (%) Winds ( mph kmh ) Pressure ( in mb ) Visibility ( mi km ) Precip ( " mm )
12:53 am 00:53 Clear 31 -0.6 27 -2.8 85 85 Calm 30.41 1030 10 16 0.00 0.00
1:53 am 01:53 Clear 28 -2.2 25 -3.9 88 88 SE 5 7 30.41 1030 10 16 0.00 0.00
2:53 am 02:53 Clear 29 -1.7 25 -3.9 85 85 Calm 30.39 1029 10 16 0.00 0.00
3:53 am 03:53 Clear 27 -2.8 25 -3.9 92 92 SE 7 11 30.37 1028 10 16 0.00 0.00
4:53 am 04:53 Clear 29 -1.7 23 -5 78 78 Calm 30.36 1028 10 16 0.00 0.00
5:53 am 05:53 Clear 28 -2.2 23 -5 81 81 Calm 30.37 1029 10 16 0.00 0.00
6:53 am 06:53 Clear 29 -1.7 25 -3.9 85 85 ENE 3 6 30.36 1028 10 16 0.00 0.00
7:53 am 07:53 Sunny 33 0.6 26 -3.3 75 75 SE 5 7 30.35 1028 10 16 0.00 0.00
8:53 am 08:53 Sunny 38 3.3 27 -2.8 65 65 Calm 30.36 1028 10 16 0.00 0.00
9:53 am 09:53 Sunny 44 6.7 27 -2.8 51 51 S 3 6 30.34 1027 10 16 0.00 0.00
10:53 am 10:53 Sunny 51 10.6 27 -2.8 39 39 WSW 6 9 30.31 1026 10 16 0.00 0.00
11:53 am 11:53 Sunny 55 12.8 26 -3.3 33 33 WSW 9 15 30.27 1025 10 16 0.00 0.00
12:53 pm 12:53 Sunny 57 13.9 27 -2.8 32 32 WSW 10 17 30.24 1024 10 16 0.00 0.00
1:53 pm 13:53 Sunny 57 13.9 26 -3.3 30 30 WSW 7 11 30.21 1023 10 16 0.00 0.00
2:53 pm 14:53 Sunny 57 13.9 28 -2.2 33 33 WSW 10 17 30.20 1023 10 16 0.00 0.00
3:53 pm 15:53 Sunny 56 13.3 29 -1.7 36 36 SW 10 17 30.18 1022 10 16 0.00 0.00
4:53 pm 16:53 Sunny 51 10.6 29 -1.7 43 43 SW 8 13 30.16 1022 10 16 0.00 0.00
5:53 pm 17:53 Clear 47 8.3 28 -2.2 48 48 W 5 7 30.17 1022 10 16 0.00 0.00
6:53 pm 18:53 Clear 41 5 30 -1.1 65 65 S 6 9 30.15 1021 10 16 0.00 0.00
7:53 pm 19:53 Clear 44 6.7 29 -1.7 55 55 S 5 7 30.15 1021 10 16 0.00 0.00
8:53 pm 20:53 Mostly Cloudy 44 6.7 30 -1.1 58 58 SSE 3 6 30.15 1021 10 16 0.00 0.00
9:53 pm 21:53 Clear 43 6.1 31 -0.6 63 63 Calm 30.16 1021 10 16 0.00 0.00
10:53 pm 22:53 Clear 41 5 32 0 70 70 S 5 7 30.14 1021 10 16 0.00 0.00
11:53 pm 23:53 Clear 44 6.7 31 -0.6 60 60 S 6 9 30.11 1020 10 16 0.00 0.00

Powered by AerisWeather